Temperature
15 14 13 13 13 12 12 12 12 12 12 12 12 12 11 10 10 10 9 9 9 9 9 8 8 8 8 7 7 7 6 6 6 5 5 5 4 3 3 2 2 1 1
15 14 14 13 13 12 12 12 12 12 12 12 11 11 11 10 10 9 9 9 9 8 8 8 8 8 7 7 7 7 6 6 5 5 5 4 4 3 2 2 1 1 0
15 14 14 13 13 12 12 12 12 11 11 11 11 10 10 10 10 9 9 9 8 8 8 8 8 7 7 7 7 6 6 5 5 4 4 3 3 2 2 1 1 0 -0
14 14 14 13 13 13 12 12 12 11 11 11 10 10 10 10 9 9 9 8 8 8 8 8 8 7 7 7 6 6 5 5 4 4 3 3 2 1 1 0 0 -0 -1
14 14 14 14 13 13 12 12 11 11 11 10 10 10 10 9 9 9 8 8 8 8 8 7 7 7 7 6 6 5 5 4 4 3 3 2 1 1 0 -0 -1 -1 -1
14 14 14 13 13 12 12 12 11 11 11 10 10 10 9 9 9 9 8 8 8 8 7 7 7 7 6 6 5 5 4 4 3 2 2 1 1 -0 -1 -1 -2 -2 -2
14 14 14 13 13 12 12 11 11 11 10 10 10 9 9 9 9 8 8 8 8 7 7 7 7 6 6 5 5 4 4 3 2 2 1 1 0 -1 -1 -2 -2 -3 -3
14 13 13 13 12 12 11 11 11 10 10 10 9 9 9 9 8 8 8 8 7 7 7 6 6 6 5 5 4 4 3 2 2 1 1 0 -1 -1 -2 -2 -3 -3 -3
13 13 13 13 12 12 11 11 10 10 10 9 9 9 9 8 8 8 7 7 7 7 6 6 6 5 5 4 4 3 3 2 1 1 0 -0 -1 -2 -2 -3 -3 -4 -4
13 13 13 12 12 11 11 10 10 10 9 9 9 9 8 8 8 7 7 7 6 6 6 5 5 5 4 3 3 2 2 1 1 0 -0 -1 -1 -2 -3 -3 -4 -5 -5
13 12 12 12 11 11 10 10 9 9 9 9 8 8 8 8 7 7 7 6 6 6 5 5 5 4 3 3 2 2 1 1 0 -0 -1 -1 -2 -3 -3 -4 -4 -5 -6
12 12 11 11 11 10 10 9 9 9 9 8 8 8 8 7 7 7 6 6 6 5 5 5 4 3 3 2 2 1 1 0 -0 -1 -1 -2 -3 -3 -4 -4 -5 -6 -6
12 11 11 10 10 10 9 9 9 8 8 8 8 7 7 7 6 6 6 6 5 5 4 4 3 3 2 2 1 1 0 -0 -1 -2 -2 -3 -3 -4 -4 -5 -5 -6 -6
11 11 10 10 10 9 9 9 9 8 8 8 7 7 7 6 6 6 5 5 5 4 4 3 3 2 2 1 1 0 -1 -1 -2 -2 -3 -4 -4 -4 -5 -5 -6 -7 -7
11 10 10 10 9 9 8 8 8 8 8 8 7 7 7 6 6 6 5 5 4 4 3 2 2 1 1 1 0 -1 -1 -2 -2 -3 -4 -4 -5 -5 -6 -6 -7 -7 -8
10 10 9 9 9 8 8 8 7 8 7 7 7 7 6 6 6 5 4 4 3 3 2 2 1 1 0 -0 -1 -1 -2 -2 -3 -4 -4 -5 -5 -6 -6 -7 -7 -8 -8
11 10 9 9 8 8 8 8 7 7 6 6 6 6 6 5 5 4 4 3 3 2 2 2 1 0 -0 -1 -1 -2 -2 -3 -4 -4 -5 -5 -6 -6 -7 -7 -8 -8 -8
10 10 9 9 8 8 8 8 7 7 6 6 5 5 5 5 4 4 3 3 2 2 1 1 0 -0 -1 -1 -2 -2 -3 -3 -4 -5 -5 -6 -6 -7 -7 -8 -8 -9 -9
9 9 8 8 8 7 7 7 7 6 6 6 5 4 4 4 3 3 3 2 2 1 1 0 -0 -1 -1 -2 -2 -3 -3 -4 -4 -5 -5 -6 -7 -7 -8 -8 -9 -9 -9
9 8 8 8 7 7 7 7 6 6 6 5 5 4 4 3 3 3 2 2 1 1 0 -0 -1 -1 -2 -2 -3 -3 -4 -4 -5 -5 -6 -6 -7 -7 -8 -8 -9 -9 -9
8 7 7 7 7 7 6 6 6 6 5 5 5 4 4 3 3 2 2 1 1 0 -0 -1 -1 -2 -2 -3 -3 -4 -4 -5 -5 -6 -6 -7 -7 -8 -8 -9 -9 -9 -10
8 7 7 7 6 6 6 6 6 5 5 5 4 3 3 2 2 2 1 1 0 -0 -1 -1 -2 -2 -3 -3 -3 -4 -4 -5 -5 -6 -7 -7 -8 -8 -8 -9 -9 -9 -10
7 7 6 6 6 6 5 5 5 5 5 4 4 3 2 2 2 1 1 0 -0 -1 -1 -2 -2 -3 -3 -3 -4 -4 -5 -5 -6 -6 -7 -7 -8 -8 -9 -9 -9 -10 -10
7 6 6 5 5 5 5 5 5 4 4 3 3 3 2 2 1 1 0 -0 -1 -1 -2 -2 -3 -3 -3 -4 -4 -5 -5 -6 -6 -7 -7 -8 -8 -8 -9 -9 -10 -10 -10
6 6 5 5 5 5 5 4 4 4 3 3 2 2 1 1 1 0 -0 -1 -1 -2 -2 -3 -3 -3 -4 -4 -5 -5 -5 -6 -6 -7 -7 -8 -8 -9 -9 -9 -10 -10 -10
5 5 5 5 5 5 4 4 4 3 3 2 2 1 1 1 0 -0 -1 -1 -2 -2 -3 -3 -4 -4 -4 -5 -5 -5 -6 -6 -7 -7 -8 -8 -8 -9 -9 -10 -10 -10 -10
Wind_Speed
17 16 16 16 15 14 13 13 12 12 13 14 14 14 14 13 12 12 10 10 11 9 8 9 8 6 5 4 3 3 3 3 4 4 2 1 1 2 4 7 9 9 11
16 15 16 15 15 15 14 13 12 13 13 14 14 13 13 13 13 13 12 11 11 11 9 9 8 6 6 5 4 4 4 4 4 4 3 1 2 3 3 4 6 9 10
14 15 15 15 15 15 14 13 13 12 12 13 13 13 13 13 13 12 12 11 11 10 10 10 9 8 7 5 5 5 4 3 2 2 3 2 2 2 3 4 5 5 9
13 14 15 16 16 15 14 13 13 12 12 13 13 13 12 12 12 11 11 10 9 9 9 9 9 9 9 7 6 5 3 3 2 2 3 3 3 3 2 3 5 4 6
12 13 13 13 13 13 13 13 12 12 12 12 12 12 11 11 10 11 10 10 9 8 7 7 7 8 9 7 6 5 5 3 2 2 3 2 3 3 3 3 5 5 5
12 12 11 12 12 12 13 13 12 12 12 12 12 12 11 9 13 15 12 9 9 9 8 7 7 8 8 8 8 7 6 5 4 3 3 3 4 3 3 3 4 4 5
12 11 12 13 13 13 13 13 13 13 12 12 12 12 11 11 15 15 14 9 8 8 8 7 5 5 7 5 5 5 5 5 5 3 3 4 3 3 3 3 3 4 5
11 12 12 13 13 13 13 13 12 11 12 11 11 11 10 11 15 15 14 9 7 7 7 7 7 6 5 5 4 3 3 3 3 3 3 4 3 2 2 2 3 4 5
12 12 12 13 13 14 14 14 12 11 11 10 11 11 11 11 15 16 14 8 6 6 6 6 7 6 7 7 5 4 3 2 3 4 4 4 5 6 5 2 3 4 6
12 12 12 12 13 14 13 12 10 11 10 10 10 10 11 10 14 15 13 7 7 6 5 5 7 7 8 8 6 5 4 3 2 1 2 3 3 4 5 1 1 3 4
10 11 11 12 12 12 12 11 12 11 11 10 10 8 9 11 14 15 14 8 8 7 6 4 4 7 7 7 5 4 4 2 1 1 0 1 1 1 2 2 1 2 3
11 11 12 12 11 11 13 12 12 13 12 11 10 9 7 8 11 12 13 10 9 7 6 5 5 8 7 6 4 3 2 2 2 1 0 1 2 2 2 2 4 5 5
13 12 12 12 11 12 13 14 13 12 11 10 9 9 7 6 8 13 13 12 11 6 5 8 7 8 6 4 4 3 3 2 2 1 1 2 2 2 1 2 3 4 6
14 13 12 13 12 11 10 11 11 11 11 10 10 9 8 7 7 7 7 8 9 8 6 8 8 7 5 4 3 3 2 2 1 1 1 1 1 1 2 2 2 3 4
13 13 12 12 12 11 9 7 9 8 11 12 10 10 11 9 9 13 10 8 7 7 7 5 3 3 3 2 2 2 2 2 1 1 0 1 2 2 2 2 2 3 3
13 13 11 11 11 10 11 9 10 10 13 13 13 12 9 11 16 15 14 13 13 13 8 5 4 4 3 3 3 2 1 1 1 0 0 1 1 2 2 3 3 3 4
14 13 12 12 12 11 11 12 11 10 13 14 15 15 15 17 17 16 15 14 13 12 5 5 4 4 3 3 3 2 2 1 1 1 1 1 1 2 2 3 3 4 4
13 13 13 11 12 11 11 11 11 12 10 7 9 15 17 18 17 16 16 12 7 6 4 4 4 4 3 3 3 2 1 1 1 1 1 1 1 2 2 3 3 4 4
13 11 11 11 11 11 11 11 11 11 11 10 8 10 14 15 15 14 12 6 6 5 4 4 4 4 3 3 3 2 2 1 1 1 1 1 1 2 2 3 4 7 5
11 15 14 12 12 12 11 11 11 11 11 10 10 9 9 8 7 7 5 5 5 5 5 4 4 4 3 3 3 2 2 1 1 1 1 1 2 2 3 3 3 4 4
12 14 16 13 11 11 11 11 11 11 10 9 8 9 13 8 8 7 6 5 5 5 5 4 4 3 3 3 3 2 2 1 1 1 1 1 2 2 2 3 3 3 4
12 12 11 12 11 11 11 10 11 11 11 11 9 9 13 7 6 6 5 5 4 4 4 4 4 3 3 3 3 3 2 2 1 1 1 1 2 2 2 2 3 3 3
13 13 12 11 11 14 13 10 10 10 10 10 10 8 7 6 6 6 6 5 5 4 4 4 4 3 3 3 3 3 3 2 2 2 1 2 2 2 2 2 3 4 4
13 14 14 12 12 11 11 11 10 10 10 10 9 8 7 7 6 6 6 5 5 4 4 4 4 4 4 3 2 2 2 2 2 2 3 2 2 3 3 3 3 4 4
13 13 13 12 12 12 11 11 10 10 10 9 9 8 7 7 6 6 5 5 5 4 4 4 4 4 4 4 3 2 3 3 3 3 3 3 3 3 3 3 3 3 4
13 13 12 11 11 11 11 11 11 10 9 9 8 8 8 7 6 6 5 5 5 4 4 4 4 4 4 3 3 3 3 4 4 5 3 2 3 3 2 2 3 3 3
Wind_Direction
189 189 189 190 189 188 189 188 184 180 177 179 183 184 185 184 182 184 184 178 180 181 179 182 184 171 171 179 177 182 191 184 227 264 258 273 262 268 284 280 285 289 295
186 186 187 184 183 186 188 186 180 179 178 178 179 182 184 182 183 185 184 180 181 183 182 179 181 173 176 180 181 193 202 199 205 250 275 277 266 268 274 281 290 293 294
180 181 182 182 183 186 186 183 180 179 176 174 174 179 181 180 182 184 183 181 181 182 180 180 180 174 182 182 185 194 203 206 198 226 268 282 285 290 295 296 297 293 298
176 178 181 183 184 183 180 178 178 176 173 172 173 176 177 177 178 178 178 177 178 177 177 179 179 180 185 183 188 193 188 193 204 230 264 282 287 297 304 295 301 294 299
173 176 179 176 174 172 171 171 170 170 170 169 169 170 171 172 176 173 172 171 173 173 173 176 178 179 182 182 187 188 182 189 202 230 257 281 286 303 290 284 294 300 297
171 173 167 164 165 166 166 165 164 165 165 164 167 169 170 171 168 168 168 169 172 173 172 171 173 175 183 189 194 191 187 191 203 210 235 255 268 276 284 297 301 316 309
166 164 163 161 162 163 161 161 163 164 160 161 164 165 166 164 162 165 165 165 166 169 169 169 168 172 173 177 189 194 208 218 210 206 226 244 257 261 276 290 292 293 286
161 162 161 160 160 158 159 162 160 159 161 162 162 161 160 162 162 162 159 159 159 164 167 168 166 167 176 173 170 176 195 211 221 215 221 239 255 262 258 278 292 303 295
162 163 162 160 159 159 161 161 157 155 155 157 160 159 158 159 160 159 155 158 156 155 153 154 160 168 179 172 163 173 194 236 254 254 263 278 297 308 320 351 336 327 312
165 162 159 159 159 160 159 155 150 149 148 147 149 154 155 156 159 158 155 156 154 151 145 151 160 166 173 171 170 177 199 217 203 243 283 297 310 315 322 317 270 302 309
153 152 154 156 156 153 149 146 144 142 141 142 140 140 146 150 157 159 157 160 159 155 157 159 167 169 173 180 178 184 204 178 155 178 259 311 329 326 319 309 280 268 285
147 150 151 150 148 147 145 144 144 144 143 143 140 135 137 143 150 158 158 153 149 152 159 159 163 166 171 176 178 176 157 127 119 114 315 294 295 292 294 300 294 288 278
147 149 148 145 144 147 148 147 147 148 149 150 149 148 144 139 146 151 153 149 143 139 142 144 147 153 157 162 161 151 133 122 128 152 252 272 276 283 312 320 312 308 300
150 149 147 145 143 142 144 148 151 155 154 154 155 153 146 145 146 148 149 142 133 125 122 131 134 135 129 132 136 141 128 141 143 183 256 287 311 342 334 324 318 317 310
149 149 147 145 143 139 135 139 147 156 161 159 160 156 155 160 164 156 151 150 148 142 129 115 112 124 124 122 124 123 117 111 103 91 35 333 332 334 327 328 323 317 306
152 152 150 146 142 137 130 109 91 117 129 134 141 144 145 147 148 148 146 144 142 141 130 137 144 147 152 157 155 148 142 153 154 148 272 303 312 313 315 322 321 310 303
157 154 151 148 146 144 141 136 125 100 100 115 129 134 138 142 144 145 143 141 143 139 129 143 150 155 155 155 156 162 176 175 150 157 252 282 303 311 317 317 315 310 305
151 151 150 150 148 147 145 142 140 138 131 116 121 132 136 139 141 142 141 134 139 135 137 147 151 154 153 155 161 166 167 159 164 205 245 269 283 300 311 309 306 305 308
150 150 147 145 143 142 140 137 136 134 133 131 125 129 133 134 136 140 139 137 148 149 145 145 148 149 150 153 159 163 165 174 184 200 244 271 277 293 302 301 303 311 316
148 146 145 144 141 141 140 139 139 139 139 142 145 144 140 134 138 143 138 136 141 144 145 147 147 149 151 155 158 158 161 178 192 207 242 265 275 285 292 295 300 307 305
145 145 141 139 143 144 144 144 144 144 145 146 146 152 152 148 149 148 147 145 146 147 147 146 147 150 153 154 155 161 171 195 205 214 235 262 278 289 291 293 300 302 306
143 145 145 143 141 142 141 140 141 142 144 142 140 145 147 136 140 142 142 143 140 141 143 144 148 155 160 160 161 166 181 199 207 210 229 252 274 286 291 294 302 305 309
139 139 137 136 137 139 136 137 139 141 142 142 143 143 144 140 141 140 141 140 137 135 135 138 143 145 138 136 147 170 187 206 206 194 212 244 261 272 280 286 293 302 307
139 140 139 139 138 140 140 140 139 139 139 141 142 144 144 142 141 141 141 139 136 136 138 140 146 151 149 143 154 172 188 202 207 218 217 227 251 261 267 273 282 291 296
138 139 140 141 142 141 139 139 139 139 139 141 142 142 140 140 140 141 141 141 139 140 143 142 143 149 156 164 173 195 210 220 234 237 235 228 233 246 255 263 274 284 289
134 135 136 137 138 139 140 141 141 141 140 141 142 142 143 142 142 143 142 142 141 141 143 144 150 156 164 178 191 204 218 230 240 248 240 224 226 244 251 260 273 278 284
Height
1407 1413 1419 1424 1430 1435 1440 1445 1450 1455 1459 1462 1466 1471 1475 1478 1482 1486 1489 1492 1495 1498 1500 1502 1504 1506 1507 1508 1508 1509 1509 1508 1506 1505 1505 1503 1502 1500 1498 1496 1493 1490 1487
1400 1406 1412 1418 1423 1429 1434 1439 1444 1449 1453 1457 1461 1465 1469 1473 1477 1480 1483 1487 1489 1492 1495 1497 1499 1501 1502 1503 1503 1503 1504 1503 1502 1500 1499 1498 1497 1495 1492 1490 1488 1485 1481
1394 1400 1406 1411 1417 1422 1427 1433 1438 1443 1447 1451 1455 1459 1463 1467 1471 1475 1478 1481 1484 1487 1490 1492 1494 1495 1496 1498 1498 1498 1498 1498 1497 1495 1494 1493 1491 1490 1487 1484 1482 1479 1476
1388 1394 1399 1405 1410 1416 1421 1427 1432 1437 1442 1446 1449 1453 1458 1462 1466 1470 1473 1477 1480 1483 1485 1487 1489 1490 1492 1493 1493 1493 1493 1493 1492 1490 1489 1487 1486 1484 1482 1479 1475 1473 1470
1382 1388 1393 1399 1405 1410 1416 1421 1427 1432 1436 1441 1445 1449 1453 1457 1461 1465 1469 1472 1475 1478 1480 1482 1484 1486 1487 1488 1488 1488 1488 1488 1487 1485 1484 1482 1481 1479 1477 1474 1470 1467 1464
1377 1383 1388 1394 1400 1405 1410 1416 1421 1427 1432 1436 1440 1444 1448 1452 1456 1460 1464 1468 1471 1473 1475 1478 1479 1481 1482 1483 1484 1484 1484 1483 1482 1481 1479 1478 1476 1475 1472 1470 1467 1462 1458
1372 1378 1383 1389 1394 1400 1406 1411 1416 1421 1426 1431 1435 1440 1444 1448 1452 1456 1460 1463 1466 1469 1471 1473 1475 1476 1477 1478 1479 1479 1479 1478 1478 1477 1475 1474 1472 1471 1468 1466 1463 1459 1456
1368 1373 1378 1384 1389 1395 1401 1406 1411 1417 1422 1427 1431 1435 1440 1444 1448 1452 1456 1459 1462 1465 1467 1468 1470 1472 1473 1473 1474 1474 1474 1473 1473 1472 1471 1470 1469 1467 1465 1462 1459 1455 1452
1363 1368 1373 1379 1385 1391 1396 1402 1407 1413 1418 1423 1427 1432 1436 1440 1444 1448 1452 1455 1458 1460 1462 1464 1466 1467 1468 1469 1469 1469 1469 1469 1469 1468 1467 1466 1465 1463 1461 1458 1455 1451 1447
1360 1365 1370 1375 1381 1387 1392 1398 1404 1409 1414 1419 1424 1429 1433 1437 1441 1445 1448 1451 1454 1456 1458 1460 1462 1463 1464 1464 1464 1465 1464 1464 1464 1463 1463 1462 1460 1459 1457 1455 1452 1448 1444
1357 1362 1368 1373 1378 1384 1390 1395 1401 1406 1411 1416 1421 1426 1430 1434 1438 1441 1444 1447 1450 1452 1454 1456 1457 1459 1460 1460 1460 1461 1461 1461 1460 1459 1458 1457 1456 1455 1453 1451 1448 1446 1442
1355 1360 1365 1371 1376 1382 1387 1393 1398 1403 1408 1413 1418 1422 1427 1431 1434 1438 1441 1444 1446 1448 1450 1452 1453 1455 1456 1456 1457 1457 1457 1457 1456 1455 1454 1453 1452 1450 1449 1447 1444 1442 1439
1352 1358 1363 1368 1374 1379 1384 1389 1395 1400 1405 1409 1414 1419 1423 1427 1431 1434 1438 1440 1443 1445 1447 1448 1450 1451 1452 1453 1453 1453 1453 1453 1452 1451 1450 1449 1448 1447 1445 1442 1440 1437 1435
1349 1354 1360 1365 1371 1377 1382 1387 1392 1396 1401 1406 1410 1415 1419 1424 1427 1431 1434 1437 1439 1441 1443 1445 1447 1448 1449 1449 1450 1450 1449 1449 1449 1448 1447 1446 1445 1443 1441 1438 1436 1433 1430
1346 1352 1357 1363 1368 1374 1379 1385 1390 1395 1399 1403 1407 1412 1416 1420 1424 1428 1430 1433 1436 1438 1440 1442 1443 1444 1445 1446 1446 1446 1446 1446 1445 1445 1444 1442 1441 1439 1437 1435 1433 1430 1427
1343 1349 1354 1359 1365 1371 1376 1382 1388 1394 1398 1403 1407 1411 1415 1419 1422 1425 1428 1431 1433 1435 1437 1438 1439 1441 1441 1442 1442 1442 1442 1442 1442 1441 1440 1439 1437 1436 1434 1432 1430 1427 1425
1340 1345 1350 1356 1362 1368 1373 1378 1384 1390 1396 1401 1405 1409 1413 1416 1420 1423 1425 1428 1430 1432 1434 1435 1436 1437 1438 1439 1439 1439 1439 1439 1438 1438 1437 1436 1434 1433 1431 1429 1427 1425 1422
1338 1343 1348 1353 1359 1365 1371 1377 1382 1386 1391 1397 1402 1406 1410 1414 1417 1420 1423 1425 1427 1429 1431 1432 1433 1434 1435 1436 1436 1436 1436 1435 1435 1434 1434 1432 1431 1430 1428 1427 1425 1423 1420
1335 1340 1346 1352 1358 1364 1369 1375 1380 1385 1390 1394 1399 1404 1408 1411 1415 1417 1420 1422 1424 1425 1427 1429 1430 1431 1432 1432 1433 1433 1432 1432 1432 1431 1430 1429 1428 1427 1426 1424 1422 1421 1418
1333 1338 1344 1349 1356 1361 1367 1372 1378 1383 1388 1392 1396 1400 1404 1408 1411 1414 1417 1419 1421 1423 1424 1426 1427 1428 1429 1429 1429 1429 1429 1429 1429 1428 1427 1426 1426 1425 1423 1422 1420 1418 1416
1330 1336 1342 1348 1354 1359 1365 1370 1376 1381 1385 1390 1394 1399 1402 1406 1408 1411 1414 1416 1418 1420 1422 1423 1424 1425 1426 1426 1426 1426 1426 1426 1425 1425 1424 1423 1423 1422 1421 1419 1418 1416 1414
1327 1333 1340 1346 1352 1358 1363 1369 1374 1379 1384 1388 1392 1397 1400 1404 1406 1409 1412 1414 1416 1418 1419 1421 1422 1422 1423 1423 1423 1423 1423 1423 1422 1422 1421 1421 1420 1419 1418 1417 1415 1414 1412
1325 1331 1338 1344 1350 1356 1362 1367 1372 1377 1382 1386 1390 1394 1398 1401 1404 1407 1409 1412 1413 1415 1416 1418 1419 1419 1420 1420 1421 1420 1420 1420 1419 1419 1418 1418 1417 1416 1416 1414 1413 1412 1411
1324 1330 1336 1342 1348 1354 1360 1365 1370 1375 1380 1384 1388 1392 1396 1399 1402 1404 1407 1409 1411 1412 1414 1415 1416 1417 1417 1417 1417 1417 1417 1417 1416 1416 1416 1415 1415 1414 1413 1412 1411 1410 1409
1322 1329 1335 1341 1347 1352 1358 1364 1369 1374 1378 1382 1386 1390 1393 1397 1400 1402 1404 1406 1408 1410 1411 1412 1413 1414 1414 1414 1414 1414 1414 1414 1414 1413 1413 1413 1412 1411 1411 1410 1409 1408 1407
1322 1328 1334 1340 1346 1351 1357 1362 1367 1372 1376 1381 1384 1388 1391 1395 1397 1400 1402 1404 1405 1407 1408 1409 1410 1411 1411 1411 1411 1411 1411 1411 1411 1411 1410 1410 1409 1409 1408 1407 1407 1406 1405